sat.trackr.live / text

‹ back to catalog

STARLINK-37579

NORAD 69843 · 2026-154AA

PAYLOAD ACTIVE UNKNOWN

§ Identity

Operator
Country
US
Launch date
2026-07-05
Launch site
AFETR
Launch vehicle
Mass (kg)
RCS (m²)

Purposes: comms

External: N2YO · Heavens-Above · Gunter

§ Orbital elements

Epoch: 2026-09-19T17:05:39.550848Z

Period
93.85 min
Inclination
53.1583°
Eccentricity
0.0001317
Mean motion
15.34411605 rev/d
Perigee alt
461.8 km
Apogee alt
463.6 km
Semi-major
6,840.8 km
B*
6.8037e-4
RAAN
335.6358°
Arg perigee
100.2738°
Mean anomaly
259.8413°
Rev number
1,311

§ Raw data

STARLINK-375791 69843U 26154AA  26262.71226332  .00022689  00000+0  68037-3 0  99952 69843  53.1583 335.6358 0001317 100.2738 259.8413 15.34411605 13111

JSON: /api/v1/satellites/69843 · /tle

For live sub-satellite position, see the globe view (requires WebGL).

§ Visibility from observer

Set your observer location to see the next 7 days of passes ≥ 10°. The values pass through the URL so the page stays shareable.

No JS? Fill the form by hand. The geolocation button needs JavaScript.